• In Kazakhstan
  • List of Countries
  • For 7 days
  • Water Temperature
  • Satellite Maps
  • Weather Map
  • News
  • Weather Widgets
  • user-avatar
    Login

    Hourly Weather Balasore

    Today, 25 November, Saturday

    Time Temperature Precipitation Wind Pressure Humidity
    00:00 +20°C° 0 mm 1 mps 759 mmHg 55%
    01:00 +19°C° 0 mm 2 mps 759 mmHg 54%
    02:00 +19°C° 0 mm 2 mps 758 mmHg 54%
    03:00 +18°C° 0 mm 2 mps 758 mmHg 53%
    04:00 +18°C° 0 mm 3 mps 759 mmHg 52%
    05:00 +18°C° 0 mm 3 mps 759 mmHg 51%
    06:00 +17°C° 0 mm 2 mps 759 mmHg 54%
    07:00 +19°C° 0 mm 3 mps 759 mmHg 51%
    08:00 +21°C° 0 mm 3 mps 760 mmHg 48%
    09:00 +24°C° 0 mm 3 mps 760 mmHg 45%
    10:00 +25°C° 0 mm 3 mps 760 mmHg 42%
    11:00 +27°C° 0 mm 3 mps 760 mmHg 38%
    12:00 +28°C° 0 mm 3 mps 760 mmHg 34%
    13:00 +29°C° 0 mm 3 mps 759 mmHg 34%
    14:00 +29°C° 0 mm 3 mps 759 mmHg 33%
    15:00 +29°C° 0 mm 3 mps 758 mmHg 33%
    16:00 +27°C° 0 mm 2 mps 758 mmHg 38%
    17:00 +25°C° 0 mm 2 mps 758 mmHg 43%
    18:00 +24°C° 0 mm 2 mps 758 mmHg 48%
    19:00 +23°C° 0 mm 2 mps 759 mmHg 49%
    20:00 +21°C° 0 mm 2 mps 759 mmHg 49%
    21:00 +21°C° 0 mm 2 mps 760 mmHg 50%
    22:00 +20°C° 0 mm 2 mps 760 mmHg 50%
    23:00 +20°C° 0 mm 2 mps 760 mmHg 51%

    Tomorrow, 26 November, Sunday

    Time Temperature Precipitation Wind Pressure Humidity
    00:00 +19°C° 0 mm 2 mps 760 mmHg 51%
    01:00 +19°C° 0 mm 2 mps 760 mmHg 50%
    02:00 +19°C° 0 mm 2 mps 760 mmHg 50%
    03:00 +18°C° 0 mm 2 mps 759 mmHg 50%
    04:00 +18°C° 0 mm 3 mps 759 mmHg 49%
    05:00 +18°C° 0 mm 3 mps 759 mmHg 48%
    06:00 +18°C° 0 mm 3 mps 760 mmHg 47%
    07:00 +19°C° 0 mm 3 mps 760 mmHg 46%
    08:00 +21°C° 0 mm 3 mps 761 mmHg 44%
    09:00 +22°C° 0 mm 3 mps 761 mmHg 43%
    10:00 +25°C° 0 mm 3 mps 761 mmHg 40%
    11:00 +27°C° 0 mm 3 mps 760 mmHg 37%
    12:00 +28°C° 0 mm 3 mps 760 mmHg 34%
    13:00 +29°C° 0 mm 2 mps 759 mmHg 33%
    14:00 +29°C° 0 mm 2 mps 759 mmHg 33%
    15:00 +29°C° 0 mm 2 mps 758 mmHg 33%
    16:00 +28°C° 0 mm 1 mps 758 mmHg 37%
    17:00 +26°C° 0 mm 1 mps 758 mmHg 42%
    18:00 +24°C° 0 mm 1 mps 758 mmHg 47%
    19:00 +23°C° 0 mm 1 mps 758 mmHg 48%
    20:00 +23°C° 0 mm 1 mps 759 mmHg 50%
    21:00 +22°C° 0 mm 1 mps 759 mmHg 51%
    22:00 +22°C° 0 mm 1 mps 759 mmHg 52%
    23:00 +21°C° 0 mm 1 mps 759 mmHg 52%

    Day after tomorrow, 27 November, Monday

    Time Temperature Precipitation Wind Pressure Humidity
    00:00 +21°C° 0 mm 1 mps 759 mmHg 53%
    01:00 +20°C° 0 mm 2 mps 759 mmHg 53%
    02:00 +19°C° 0 mm 2 mps 758 mmHg 53%
    03:00 +19°C° 0 mm 2 mps 758 mmHg 53%
    04:00 +19°C° 0 mm 2 mps 758 mmHg 52%
    05:00 +18°C° 0 mm 2 mps 758 mmHg 51%
    06:00 +18°C° 0 mm 2 mps 758 mmHg 51%
    07:00 +20°C° 0 mm 2 mps 759 mmHg 48%
    08:00 +21°C° 0 mm 2 mps 759 mmHg 46%
    09:00 +24°C° 0 mm 2 mps 760 mmHg 44%
    10:00 +26°C° 0 mm 2 mps 760 mmHg 40%
    11:00 +27°C° 0 mm 2 mps 759 mmHg 37%
    12:00 +29°C° 0 mm 2 mps 759 mmHg 34%
    13:00 +29°C° 0 mm 2 mps 758 mmHg 33%
    14:00 +30°C° 0 mm 2 mps 757 mmHg 32%
    15:00 +30°C° 0 mm 2 mps 756 mmHg 32%
    16:00 +28°C° 0 mm 2 mps 756 mmHg 37%
    17:00 +26°C° 0 mm 2 mps 756 mmHg 41%
    18:00 +24°C° 0 mm 1 mps 757 mmHg 46%
    19:00 +23°C° 0 mm 1 mps 757 mmHg 47%
    20:00 +23°C° 0 mm 1 mps 758 mmHg 48%
    21:00 +22°C° 0 mm 1 mps 758 mmHg 50%
    22:00 +22°C° 0 mm 1 mps 758 mmHg 50%
    23:00 +21°C° 0 mm 1 mps 758 mmHg 51%

    28 November, Tuesday

    Time Temperature Precipitation Wind Pressure Humidity
    00:00 +21°C° 0 mm 1 mps 758 mmHg 52%
    01:00 +21°C° 0 mm 1 mps 757 mmHg 52%
    02:00 +20°C° 0 mm 1 mps 757 mmHg 53%
    03:00 +19°C° 0 mm 2 mps 757 mmHg 53%
    04:00 +19°C° 0 mm 2 mps 757 mmHg 53%
    05:00 +19°C° 0 mm 2 mps 758 mmHg 52%
    06:00 +18°C° 0 mm 2 mps 758 mmHg 52%
    07:00 +20°C° 0 mm 2 mps 758 mmHg 49%
    08:00 +23°C° 0 mm 2 mps 759 mmHg 46%
    09:00 +24°C° 0 mm 2 mps 760 mmHg 43%
    10:00 +26°C° 0 mm 2 mps 759 mmHg 40%
    11:00 +27°C° 0 mm 2 mps 759 mmHg 37%
    12:00 +29°C° 0 mm 2 mps 759 mmHg 34%
    13:00 +29°C° 0 mm 2 mps 758 mmHg 34%
    14:00 +29°C° 0 mm 2 mps 757 mmHg 33%
    15:00 +30°C° 0 mm 2 mps 757 mmHg 33%
    16:00 +28°C° 0 mm 2 mps 757 mmHg 38%
    17:00 +26°C° 0 mm 1 mps 757 mmHg 43%
    18:00 +24°C° 0 mm 1 mps 757 mmHg 49%
    19:00 +23°C° 0 mm 1 mps 758 mmHg 50%
    20:00 +23°C° 0 mm 1 mps 758 mmHg 51%
    21:00 +22°C° 0 mm 1 mps 759 mmHg 53%
    22:00 +22°C° 0 mm 1 mps 759 mmHg 53%
    23:00 +22°C° 0 mm 1 mps 759 mmHg 54%

    29 November, Wednesday

    Time Temperature Precipitation Wind Pressure Humidity
    00:00 +21°C° 0 mm 1 mps 759 mmHg 55%
    01:00 +21°C° 0 mm 1 mps 759 mmHg 55%
    02:00 +20°C° 0 mm 2 mps 758 mmHg 56%
    03:00 +19°C° 0 mm 2 mps 758 mmHg 56%
    04:00 +19°C° 0 mm 2 mps 759 mmHg 56%
    05:00 +18°C° 0 mm 2 mps 759 mmHg 56%
    06:00 +18°C° 0 mm 3 mps 759 mmHg 55%
    07:00 +20°C° 0 mm 3 mps 760 mmHg 52%
    08:00 +21°C° 0 mm 3 mps 760 mmHg 49%
    09:00 +24°C° 0 mm 3 mps 761 mmHg 46%
    10:00 +25°C° 0 mm 3 mps 760 mmHg 42%
    11:00 +27°C° 0 mm 3 mps 760 mmHg 37%
    12:00 +29°C° 0 mm 2 mps 759 mmHg 33%
    13:00 +29°C° 0 mm 2 mps 759 mmHg 32%
    14:00 +29°C° 0 mm 2 mps 758 mmHg 31%
    15:00 +30°C° 0 mm 2 mps 758 mmHg 30%
    16:00 +28°C° 0 mm 2 mps 758 mmHg 35%
    17:00 +26°C° 0 mm 2 mps 758 mmHg 39%
    18:00 +24°C° 0 mm 1 mps 758 mmHg 44%
    19:00 +23°C° 0 mm 1 mps 759 mmHg 45%
    20:00 +23°C° 0 mm 2 mps 759 mmHg 46%
    21:00 +21°C° 0 mm 2 mps 759 mmHg 47%
    22:00 +21°C° 0 mm 2 mps 759 mmHg 48%
    23:00 +20°C° 0 mm 2 mps 759 mmHg 48%

    30 November, Thursday

    Time Temperature Precipitation Wind Pressure Humidity
    00:00 +20°C° 0 mm 2 mps 759 mmHg 49%
    01:00 +20°C° 0 mm 2 mps 759 mmHg 50%
    02:00 +19°C° 0 mm 2 mps 758 mmHg 50%
    03:00 +19°C° 0 mm 2 mps 758 mmHg 50%
    04:00 +19°C° 0 mm 3 mps 759 mmHg 50%
    05:00 +18°C° 0 mm 3 mps 759 mmHg 50%
    06:00 +18°C° 0 mm 3 mps 759 mmHg 50%
    07:00 +19°C° 0 mm 3 mps 760 mmHg 48%
    08:00 +21°C° 0 mm 3 mps 760 mmHg 46%
    09:00 +24°C° 0 mm 3 mps 761 mmHg 45%
    10:00 +25°C° 0 mm 3 mps 760 mmHg 41%
    11:00 +27°C° 0 mm 3 mps 759 mmHg 37%
    12:00 +29°C° 0 mm 3 mps 759 mmHg 34%
    13:00 +29°C° 0 mm 3 mps 758 mmHg 33%
    14:00 +29°C° 0 mm 3 mps 758 mmHg 33%
    15:00 +30°C° 0 mm 3 mps 757 mmHg 32%
    16:00 +28°C° 0 mm 3 mps 757 mmHg 36%
    17:00 +26°C° 0 mm 3 mps 757 mmHg 41%
    18:00 +24°C° 0 mm 2 mps 757 mmHg 45%
    19:00 +23°C° 0 mm 2 mps 758 mmHg 46%
    20:00 +23°C° 0 mm 2 mps 758 mmHg 47%
    21:00 +21°C° 0 mm 2 mps 759 mmHg 48%
    22:00 +21°C° 0 mm 2 mps 759 mmHg 49%
    23:00 +20°C° 0 mm 2 mps 759 mmHg 49%
    Show more